Time,TemperatureF,DewpointF,PressureIn,WindDirection,WindDirectionDegrees,WindSpeedMPH,WindSpeedGustMPH,Humidity,HourlyPrecipIn,Conditions,Clouds,dailyrainin,SoftwareType,DateUTC
2013-10-15 00:14:00,50.0,46.0,-100.00,South,170,1.0,4.0,87,-99.99,,,-99.99,,2013-10-15 04:14:00,
2013-10-15 00:24:00,50.0,46.0,-100.00,South,170,1.0,4.0,87,-99.99,,,-99.99,,2013-10-15 04:24:00,
2013-10-15 00:54:00,49.0,47.0,-100.00,South,170,2.0,5.0,90,-99.99,,,-99.99,,2013-10-15 04:54:00,
2013-10-15 01:22:00,49.0,47.0,-100.00,SSW,195,1.0,3.0,91,-99.99,,,-99.99,,2013-10-15 05:22:00,
2013-10-15 01:52:00,48.0,46.0,-100.00,SSW,200,2.0,4.0,92,-99.99,,,-99.99,,2013-10-15 05:52:00,
2013-10-15 02:22:00,48.0,46.0,-100.00,SSW,210,0.0,2.0,94,-99.99,,,-99.99,,2013-10-15 06:22:00,
2013-10-15 02:52:00,47.0,46.0,-100.00,South,185,1.0,3.0,96,-99.99,,,-99.99,,2013-10-15 06:52:00,
2013-10-15 03:22:00,48.0,47.0,-100.00,South,185,2.0,4.0,96,-99.99,,,-99.99,,2013-10-15 07:22:00,
2013-10-15 03:52:00,48.0,47.0,-100.00,South,170,4.0,7.0,96,-99.99,,,-99.99,,2013-10-15 07:52:00,
2013-10-15 04:22:00,48.0,47.0,-100.00,SSW,200,1.0,4.0,96,-99.99,,,-99.99,,2013-10-15 08:22:00,
2013-10-15 04:32:00,48.0,47.0,-100.00,SSW,200,1.0,4.0,96,-99.99,,,-99.99,,2013-10-15 08:32:00,
2013-10-15 04:52:00,47.0,47.0,-100.00,South,185,2.0,5.0,98,-99.99,,,-99.99,,2013-10-15 08:52:00,
2013-10-15 05:12:00,48.0,47.0,-100.00,South,190,3.0,6.0,98,-99.99,,,-99.99,,2013-10-15 09:12:00,
2013-10-15 05:22:00,48.0,47.0,-100.00,South,190,3.0,6.0,98,-99.99,,,-99.99,,2013-10-15 09:22:00,
2013-10-15 05:43:00,49.0,48.0,-100.00,SSW,200,4.0,7.0,98,-99.99,,,-99.99,,2013-10-15 09:43:00,
2013-10-15 05:53:00,49.0,49.0,-100.00,SSW,195,2.0,7.0,99,-99.99,,,-99.99,,2013-10-15 09:53:00,
2013-10-15 06:23:00,49.0,49.0,-100.00,SSE,155,0.0,2.0,99,-99.99,,,-99.99,,2013-10-15 10:23:00,
2013-10-15 06:53:00,51.0,51.0,-100.00,SE,140,0.0,2.0,99,-99.99,,,-99.99,,2013-10-15 10:53:00,
2013-10-15 07:22:00,51.0,51.0,-100.00,SSE,150,0.0,4.0,99,-99.99,,,-99.99,,2013-10-15 11:22:00,
2013-10-15 07:52:00,52.0,52.0,-100.00,South,185,2.0,4.0,99,-99.99,,,-99.99,,2013-10-15 11:52:00,
2013-10-15 08:12:00,53.0,53.0,-100.00,SW,230,1.0,4.0,99,-99.99,,,-99.99,,2013-10-15 12:12:00,
2013-10-15 08:22:00,53.0,53.0,-100.00,South,190,1.0,6.0,99,-99.99,,,-99.99,,2013-10-15 12:22:00,
2013-10-15 08:52:00,54.0,54.0,-100.00,South,190,1.0,3.0,99,-99.99,,,-99.99,,2013-10-15 12:52:00,
2013-10-15 09:02:00,54.0,54.0,-100.00,South,190,1.0,3.0,99,-99.99,,,-99.99,,2013-10-15 13:02:00,
2013-10-15 09:21:00,56.0,56.0,-100.00,South,170,2.0,7.0,99,-99.99,,,-99.99,,2013-10-15 13:21:00,
2013-10-15 09:52:00,57.0,57.0,-100.00,SW,220,4.0,7.0,99,-99.99,,,-99.99,,2013-10-15 13:52:00,
2013-10-15 10:22:00,58.0,58.0,-100.00,South,190,4.0,7.0,99,-99.99,,,-99.99,,2013-10-15 14:22:00,
2013-10-15 10:42:00,59.0,59.0,-100.00,SSW,210,2.0,7.0,99,-99.99,,,-99.99,,2013-10-15 14:42:00,
2013-10-15 10:52:00,59.0,59.0,-100.00,South,190,1.0,6.0,99,-99.99,,,-99.99,,2013-10-15 14:52:00,
2013-10-15 11:02:00,59.0,59.0,-100.00,South,190,1.0,6.0,99,-99.99,,,-99.99,,2013-10-15 15:02:00,
2013-10-15 11:11:00,59.0,59.0,-100.00,South,190,1.0,6.0,99,-99.99,,,-99.99,,2013-10-15 15:11:00,
2013-10-15 11:22:00,60.0,60.0,-100.00,North,-999,-999.0,-999.0,99,-99.99,,,-99.99,,2013-10-15 15:22:00,
2013-10-15 11:44:00,59.0,59.0,-100.00,SW,215,1.0,6.0,99,-99.99,,,-99.99,,2013-10-15 15:44:00,
2013-10-15 11:53:00,60.0,60.0,-100.00,SSW,195,4.0,7.0,99,-99.99,,,-99.99,,2013-10-15 15:53:00,
2013-10-15 12:23:00,60.0,60.0,-100.00,SSW,205,4.0,8.0,99,-99.99,,,-99.99,,2013-10-15 16:23:00,
2013-10-15 12:42:00,60.0,60.0,-100.00,SSE,165,1.0,6.0,99,-99.99,,,-99.99,,2013-10-15 16:42:00,
2013-10-15 12:53:00,60.0,60.0,-100.00,SSW,200,6.0,11.0,99,-99.99,,,-99.99,,2013-10-15 16:53:00,
2013-10-15 13:22:00,61.0,61.0,-100.00,SW,215,6.0,11.0,99,-99.99,,,-99.99,,2013-10-15 17:22:00,
2013-10-15 13:53:00,62.0,62.0,-100.00,SSW,210,6.0,11.0,99,-99.99,,,-99.99,,2013-10-15 17:53:00,
2013-10-15 14:22:00,62.0,62.0,-100.00,SW,235,9.0,12.0,99,-99.99,,,-99.99,,2013-10-15 18:22:00,
2013-10-15 14:52:00,62.0,62.0,-100.00,WSW,240,5.0,8.0,99,-99.99,,,-99.99,,2013-10-15 18:52:00,
2013-10-15 15:22:00,63.0,63.0,-100.00,SW,220,7.0,10.0,99,-99.99,,,-99.99,,2013-10-15 19:22:00,
2013-10-15 15:52:00,62.0,62.0,-100.00,SSW,210,7.0,12.0,99,-99.99,,,-99.99,,2013-10-15 19:52:00,
2013-10-15 16:12:00,62.0,62.0,-100.00,SW,215,6.0,11.0,99,-99.99,,,-99.99,,2013-10-15 20:12:00,
2013-10-15 16:22:00,62.0,62.0,-100.00,SW,215,9.0,12.0,99,-99.99,,,-99.99,,2013-10-15 20:22:00,
2013-10-15 16:52:00,63.0,63.0,-100.00,SW,230,7.0,12.0,99,-99.99,,,-99.99,,2013-10-15 20:52:00,
2013-10-15 17:22:00,63.0,63.0,-100.00,SW,235,6.0,11.0,99,-99.99,,,-99.99,,2013-10-15 21:22:00,
2013-10-15 17:54:00,63.0,63.0,-100.00,SSW,195,6.0,9.0,99,-99.99,,,-99.99,,2013-10-15 21:54:00,
2013-10-15 18:23:00,63.0,63.0,-100.00,SW,220,6.0,10.0,99,-99.99,,,-99.99,,2013-10-15 22:23:00,
2013-10-15 18:53:00,62.0,62.0,-100.00,SSW,200,4.0,10.0,99,-99.99,,,-99.99,,2013-10-15 22:53:00,
2013-10-15 19:22:00,62.0,62.0,-100.00,SSW,210,6.0,11.0,99,-99.99,,,-99.99,,2013-10-15 23:22:00,
2013-10-15 19:52:00,62.0,62.0,-100.00,SSW,195,6.0,11.0,99,-99.99,,,-99.99,,2013-10-15 23:52:00,
2013-10-15 20:02:00,62.0,62.0,-100.00,SSW,195,6.0,11.0,99,-99.99,,,-99.99,,2013-10-16 00:02:00,
2013-10-15 20:22:00,62.0,62.0,-100.00,SSW,195,4.0,14.0,99,-99.99,,,-99.99,,2013-10-16 00:22:00,
2013-10-15 20:33:00,62.0,62.0,-100.00,SSW,195,4.0,14.0,99,-99.99,,,-99.99,,2013-10-16 00:33:00,
2013-10-15 20:52:00,62.0,62.0,-100.00,SW,215,7.0,12.0,99,-99.99,,,-99.99,,2013-10-16 00:52:00,
2013-10-15 21:02:00,62.0,62.0,-100.00,SW,215,7.0,12.0,99,-99.99,,,-99.99,,2013-10-16 01:02:00,
2013-10-15 21:22:00,62.0,62.0,-100.00,SW,225,7.0,10.0,99,-99.99,,,-99.99,,2013-10-16 01:22:00,
2013-10-15 21:52:00,62.0,62.0,-100.00,SSW,210,6.0,11.0,99,-99.99,,,-99.99,,2013-10-16 01:52:00,
2013-10-15 22:22:00,62.0,62.0,-100.00,SSW,210,6.0,11.0,99,-99.99,,,-99.99,,2013-10-16 02:22:00,
2013-10-15 22:52:00,63.0,63.0,-100.00,SSW,205,6.0,9.0,99,-99.99,,,-99.99,,2013-10-16 02:52:00,
2013-10-15 23:22:00,63.0,63.0,-100.00,SW,225,7.0,11.0,99,-99.99,,,-99.99,,2013-10-16 03:22:00,
2013-10-15 23:54:00,62.0,62.0,-100.00,SW,215,7.0,12.0,99,-99.99,,,-99.99,,2013-10-16 03:54:00,